Regional Weather Roundup
Issued by NWS

Home | Current Version | Previous Version | Text Only | Print | Product List | Glossary Off
Versions: 1 2 3 4 5 6 7 8 9 10 11 12 13 14 15 16 17 18 19 20 21 22 23 24 25 26 27 28 29 30 31 32 33 34 35 36 37 38 39 40 41 42 43 44 45 46 47 48 49 50

000
ASUS43 KDTX 290001
RWRMI
MICHIGAN HOURLY REGIONAL WEATHER ROUNDUP
NATIONAL WEATHER SERVICE DETROIT/PONTIAC MI
700 PM EST WED JAN 28 2015

NOTE: "FAIR" INDICATES FEW OR NO CLOUDS BELOW 12,000 FEET WITH NO
SIGNIFICANT WEATHER AND/OR OBSTRUCTION TO VISIBILITY.

MIZ047>049-052>055-059>063-066>070-074>076-081>083-290100-
SOUTHEAST LOWER MICHIGAN

CITY           SKY/WX    TMP DP  RH WIND       PRES   REMARKS
ADRIAN         CLOUDY    22  13  68 S7        30.24S WCI  13
6HR MIN TEMP:  22; 6HR MAX TEMP:  25;

ALMA           CLOUDY    26  15  63 SE5       30.16F WCI  21
ANN ARBOR      CLOUDY    25  13  60 S7        30.23F WCI  17
BAD AXE        PTCLDY    25  10  54 SE6       30.20F WCI  18
6HR MIN TEMP:  24; 6HR MAX TEMP:  28;

CARO           CLOUDY    28  10  46 SE6       30.19F WCI  22
DETROIT CITY   MOCLDY    24  15  68 S7        30.27R WCI  16
6HR MIN TEMP:  24; 6HR MAX TEMP:  29;

DETROIT        CLOUDY    24  13  62 SE12      30.26F WCI  13
6HR MIN TEMP:  24; 6HR MAX TEMP:  29;

FLINT          CLOUDY    29  11  47 S7        30.20F WCI  22
6HR MIN TEMP:  29; 6HR MAX TEMP:  32;

GROSSE ILE     MOCLDY    23  18  80 SE6       30.26S WCI  16
HILLSDALE      MOCLDY    22  13  65 SE3       30.16F
HOWELL         CLOUDY    25   9  50 SE9       30.19F WCI  16
6HR MIN TEMP:  25; 6HR MAX TEMP:  30;


CITY           SKY/WX    TMP DP  RH WIND       PRES   REMARKS
JACKSON        MOCLDY    24   8  50 S13       30.17F WCI  12
6HR MIN TEMP:  24; 6HR MAX TEMP:  30;

LAMBERTVILLE   CLOUDY    27  14  59 S6        30.26S WCI  20
LANSING        CLOUDY    27   5  39 S12       30.17F WCI  17
6HR MIN TEMP:  27; 6HR MAX TEMP:  31;

LAPEER         FAIR      28  11  50 S6        30.20F WCI  21
MASON          CLOUDY    25   8  50 SE8       30.18F WCI  16
MONROE         CLOUDY    25  16  68 S6        30.25S WCI  18
MT. CLEMENS    CLOUDY    21  15  77 S9        30.25R WCI  11
6HR MIN TEMP:  21; 6HR MAX TEMP:  27;

PONTIAC        CLOUDY    25  14  63 S8        30.20F WCI  16
6HR MIN TEMP:  25; 6HR MAX TEMP:  30;

PORT HOPE        N/A     26  13  57 S6        30.20F WCI  19
6HR MIN TEMP:  24; 6HR MAX TEMP:  29;

PORT HURON     PTCLDY    21  14  73 S8        30.27S WCI  12
TRI CITIES     MOCLDY    29  14  53 S7        30.18F WCI  22
6HR MIN TEMP:  29; 6HR MAX TEMP:  32;

TROY           MOCLDY    26  14  60 SE7       30.27S WCI  19
SAGINAW HB     MOCLDY    30  16  55 SE6       30.18F WCI  24
$$
MIZ043>046-050>051-056>058-064>065-071>073-077>080-290100-
SOUTHWEST LOWER MICHIGAN

CITY           SKY/WX    TMP DP  RH WIND       PRES   REMARKS
BATTLE CREEK   MOCLDY    27   6  41 SE12      30.13F WCI  17
6HR MIN TEMP:  27; 6HR MAX TEMP:  31;

BENTON HARBOR  MOCLDY    27  11  51 SE13      30.08F WCI  16
6HR MIN TEMP:  27; 6HR MAX TEMP:  32;

BIG RAPIDS     MOCLDY    28  12  52 SE10      30.09F WCI  19
6HR MIN TEMP:  28; 6HR MAX TEMP:  30;

COLDWATER      PTCLDY    24  11  58 SE8       30.15F WCI  15
6HR MIN TEMP:  24; 6HR MAX TEMP:  27;

FREMONT        FAIR      29   6  36 SE8       30.08F WCI  21
HOLLAND        MOCLDY    30   9  41 SE16      30.09F WCI  19
6HR MIN TEMP:  30; 6HR MAX TEMP:  33;

GRAND RAPIDS   CLOUDY    28   9  44 SE12      30.12F WCI  18
6HR MIN TEMP:  28; 6HR MAX TEMP:  31;

IONIA          FAIR      28  13  54 SE9       30.13F WCI  19
KALAMAZOO      MOCLDY    27   8  44 SE8       30.13F WCI  19
6HR MIN TEMP:  27; 6HR MAX TEMP:  30;

LUDINGTON      CLOUDY    31  10  42 SE12      30.05F WCI  21
6HR MIN TEMP:  31; 6HR MAX TEMP:  33;

MARSHALL       PTCLDY    24   7  46 SE8       30.14F WCI  16
MOUNT PLEASANT CLOUDY    28  14  56 SE7       30.14F WCI  20
6HR MIN TEMP:  28; 6HR MAX TEMP:  30;

MUSKEGON       CLOUDY    29  12  49 SE14      30.08F WCI  18
6HR MIN TEMP:  29; 6HR MAX TEMP:  32;

SOUTH HAVEN    MOCLDY    30   5  34 SE10G16   30.08F WCI  21
$$
MIZ016>042-290100-
NORTHERN LOWER MICHIGAN

CITY           SKY/WX    TMP DP  RH WIND       PRES   REMARKS
ALPENA         CLOUDY    26  11  52 SE9       30.15F WCI  17
6HR MIN TEMP:  24; 6HR MAX TEMP:  29;

BEAVER ISLAND  CLOUDY    28  19  69 CALM      30.06F
6HR MIN TEMP:  26; 6HR MAX TEMP:  28;

BELLAIRE       CLOUDY    30  12  46 S7        30.09F WCI  24
6HR MIN TEMP:  28; 6HR MAX TEMP:  32;

CADILLAC       MOCLDY    26  11  53 SE10      30.06F WCI  16
CHARLEVOIX     CLOUDY    28  12  52 SE6       30.11F WCI  21
6HR MIN TEMP:  26; 6HR MAX TEMP:  29;

FRANKFORT      CLOUDY    30  10  42 SE8       30.05F WCI  22
GAYLORD        MOCLDY    26   9  48 S10       30.06F WCI  16
6HR MIN TEMP:  23; 6HR MAX TEMP:  28;

GRAYLING       MOCLDY    28  10  47 SE9       30.10F WCI  19
HARBOR SPRINGS MOCLDY    28   5  39 NE3       30.09F
HOUGHTON LAKE    N/A     25  10  53 SE9       30.11  WCI  15
MANISTEE       CLOUDY    28   7  40 SE8       30.05F WCI  20
OSCODA         PTCLDY    25  15  65 S5        30.18F WCI  19
PELLSTON       CLOUDY    28   7  41 CALM      30.09F
6HR MIN TEMP:  25; 6HR MAX TEMP:  29;

ROGERS CITY    CLOUDY    26  17  68 SE6       30.13F WCI  19
TRAVERSE CITY  CLOUDY    30  14  51 VRB5      30.07F WCI  25
6HR MIN TEMP:  29; 6HR MAX TEMP:  32;

$$
MIZ007>008-015-290100-
EASTERN UPPER MICHIGAN

CITY           SKY/WX    TMP DP  RH WIND       PRES   REMARKS
KINROSS        CLOUDY    25  12  58 SE9       30.09F WCI  15
6HR MIN TEMP:  25; 6HR MAX TEMP:  27;

MACKINAC ISLAN CLOUDY    27  16  62 E7        30.09F WCI  20
6HR MIN TEMP:  25; 6HR MAX TEMP:  28;

NEWBERRY       CLOUDY    22  20  90 SE12      30.04F WCI  11
S. S. MARIE    CLOUDY    21  10  62 E7        30.10F WCI  12
6HR MIN TEMP:  18; 6HR MAX TEMP:  24;

MUNISING         N/A     32  26  78 S10       29.96F WCI  24
6HR MIN TEMP:  29; 6HR MAX TEMP:  32; 6HR PCP:  0.02;

$$
MIZ004>006-011>014-085-290100-
CENTRAL UPPER MICHIGAN

CITY           SKY/WX    TMP DP  RH WIND       PRES   REMARKS
MANISTIQUE     CLOUDY    31  28  88 S14       30.02F WCI  20
ESCANABA       CLOUDY    30  27  86 S10G16    30.00F WCI  21
6HR MIN TEMP:  27; 6HR MAX TEMP:  30;

MENOMINEE      CLOUDY    30  23  74 S10       29.97F WCI  21
6HR MIN TEMP:  28; 6HR MAX TEMP:  30;

SAWYER-GWINN   CLOUDY    28  23  80 S18G24    29.92F WCI  16
$$
MIZ001>003-009>011-084-290100-
WESTERN UPPER MICHIGAN

CITY           SKY/WX    TMP DP  RH WIND       PRES   REMARKS
IRON MOUNTAIN  MOCLDY    27  21  78 SE12      29.92F WCI  17
6HR MIN TEMP:  27; 6HR MAX TEMP:  29;

HOUGHTON       CLOUDY    29  22  75 SE10      29.84F WCI  20
6HR MIN TEMP:  28; 6HR MAX TEMP:  30;

COPPER HARBOR    N/A     31  22  69 S9        29.86F WCI  23
6HR MIN TEMP:  29; 6HR MAX TEMP:  31; 6HR PCP:  0.02;

IRONWOOD       CLOUDY    30  21  69 S3        29.78S
6HR MIN TEMP:  28; 6HR MAX TEMP:  32;

$$

ABBREVIATIONS USED IN REMARKS
   TC - TEMPERATURE IN CELSIUS
  WCI - WIND CHILL INDEX
   HX - HEAT INDEX
  VSB - VISIBILITY



USA.gov is the U.S. government's official web portal to all federal, state and local government web resources and services.